SWR5516 EBOS-LSGG

Flight info

Callsign SWR5516
Flight time 1h 13m
Altitude 33000
Route FERDI UL607 REMBA M624 RITAX DCT SUTAL DCT GTQ DCT POGOL DCT LASAT DCT MOROK Z24 AKITO
Aircraft A320/M-SDE3FGHIRWY/LB1

Departure

Time 2026-05-04 09:04
Airport Ostend-Bruges International Airport (EBOS)

Arrival

Time 2026-05-04 10:17
Airport Geneva International Airport (LSGG)
Time Latitude Longitude Altitude Speed Heading
2026-05-04 08:31 51.20344 2.86983 26 ft 0 kts 345°
2026-05-04 08:46 51.20275 2.87001 24 ft 4 kts
2026-05-04 08:46 51.20254 2.86991 23 ft 4 kts 63°
2026-05-04 08:46 51.20248 2.86951 23 ft 4 kts 80°
2026-05-04 08:46 51.20247 2.86942 23 ft 0 kts 77°
2026-05-04 09:01 51.20220 2.88286 22 ft 0 kts 136°
2026-05-04 09:02 51.20205 2.88303 22 ft 10 kts 150°
2026-05-04 09:02 51.20123 2.88322 20 ft 11 kts 211°
2026-05-04 09:03 51.20095 2.88190 21 ft 20 kts 257°
2026-05-04 09:03 51.20001 2.87575 23 ft 92 kts 256°
2026-05-04 09:03 51.19804 2.86265 23 ft 149 kts 256°
2026-05-04 09:03 51.19558 2.84436 462 ft 172 kts 266°
2026-05-04 09:04 51.19834 2.82600 1435 ft 175 kts 295°
2026-05-04 09:04 51.20371 2.80700 1780 ft 200 kts 294°
2026-05-04 09:04 51.20967 2.78579 2126 ft 225 kts 294°
2026-05-04 09:04 51.21633 2.76178 2600 ft 249 kts 293°
2026-05-04 09:05 51.21952 2.73424 3374 ft 261 kts 262°
2026-05-04 09:05 51.21207 2.70788 4281 ft 267 kts 227°
2026-05-04 09:05 51.19644 2.69206 5158 ft 271 kts 199°
2026-05-04 09:05 51.17808 2.68455 5772 ft 274 kts 191°
2026-05-04 09:06 51.15937 2.67881 6197 ft 277 kts 191°
2026-05-04 09:07 51.06961 2.78535 10758 ft 342 kts 107°
2026-05-04 09:08 51.06759 2.79676 10784 ft 349 kts 107°
2026-05-04 09:08 51.06093 2.83475 11114 ft 364 kts 107°
2026-05-04 09:08 51.05413 2.87376 11707 ft 369 kts 107°
2026-05-04 09:08 51.04716 2.91329 12360 ft 373 kts 107°
2026-05-04 09:09 51.04005 2.95311 13034 ft 376 kts 107°
2026-05-04 09:09 51.03527 2.97961 13472 ft 378 kts 107°
2026-05-04 09:09 51.02538 3.03365 14285 ft 383 kts 108°
2026-05-04 09:09 51.01794 3.07388 14843 ft 386 kts 108°
2026-05-04 09:10 51.01032 3.11498 15404 ft 390 kts 108°
2026-05-04 09:10 51.00270 3.15590 16069 ft 393 kts 108°
2026-05-04 09:10 50.99480 3.19841 16773 ft 399 kts 108°
2026-05-04 09:10 50.98691 3.24094 17739 ft 405 kts 108°
2026-05-04 09:11 50.97891 3.28420 18429 ft 410 kts 107°
2026-05-04 09:11 50.97085 3.32778 18969 ft 413 kts 108°
2026-05-04 09:11 50.96268 3.37166 19451 ft 416 kts 108°
2026-05-04 09:11 50.95450 3.41512 19919 ft 418 kts 109°
2026-05-04 09:12 50.94615 3.45940 20393 ft 421 kts 109°
2026-05-04 09:12 50.93775 3.50392 20864 ft 423 kts 109°
2026-05-04 09:14 50.87720 3.82165 23796 ft 440 kts 111°
2026-05-04 09:14 50.86816 3.86813 24118 ft 443 kts 111°
2026-05-04 09:14 50.85901 3.91480 24431 ft 445 kts 111°
2026-05-04 09:14 50.84982 3.96170 24748 ft 448 kts 111°
2026-05-04 09:15 50.84057 4.00885 25064 ft 450 kts 111°
2026-05-04 09:15 50.83132 4.05621 25355 ft 452 kts 111°
2026-05-04 09:15 50.82198 4.10389 25653 ft 454 kts 112°
2026-05-04 09:15 50.81257 4.15175 25950 ft 456 kts 112°
2026-05-04 09:17 50.73535 4.53996 28111 ft 472 kts 113°
2026-05-04 09:18 50.72874 4.57261 28290 ft 472 kts 113°
2026-05-04 09:18 50.71881 4.62193 28603 ft 472 kts 113°
2026-05-04 09:18 50.70594 4.68746 28982 ft 473 kts 113°
2026-05-04 09:18 50.69637 4.73715 29219 ft 474 kts 113°
2026-05-04 09:19 50.68682 4.78696 29516 ft 474 kts 113°
2026-05-04 09:19 50.68050 4.81992 29711 ft 474 kts 113°
2026-05-04 09:19 50.66962 4.86868 30011 ft 468 kts 121°
2026-05-04 09:19 50.64888 4.92713 30360 ft 456 kts 132°
2026-05-04 09:20 50.62903 4.96555 30616 ft 448 kts 141°
2026-05-04 09:20 50.61413 4.98889 30787 ft 446 kts 142°
2026-05-04 09:20 50.59227 5.02252 31045 ft 446 kts 142°
2026-05-04 09:20 50.57010 5.05667 31308 ft 446 kts 142°
2026-05-04 09:21 50.54799 5.09082 31561 ft 446 kts 142°
2026-05-04 09:21 50.52589 5.12497 31773 ft 446 kts 142°
2026-05-04 09:21 50.50371 5.15928 31982 ft 448 kts 142°
2026-05-04 09:21 50.48149 5.19365 32221 ft 449 kts 142°
2026-05-04 09:22 50.45926 5.22796 32475 ft 449 kts 142°
2026-05-04 09:22 50.43696 5.26223 32735 ft 448 kts 142°
2026-05-04 09:22 50.41467 5.29640 32951 ft 449 kts 142°
2026-05-04 09:22 50.39228 5.33059 33005 ft 451 kts 142°
2026-05-04 09:23 50.34748 5.39876 33005 ft 452 kts 142°
2026-05-04 09:23 50.30237 5.46748 33005 ft 452 kts 142°
2026-05-04 09:25 50.12252 5.73956 33008 ft 451 kts 142°
2026-05-04 09:26 50.07670 5.80587 33014 ft 445 kts 149°
2026-05-04 09:26 50.02539 5.85782 33017 ft 439 kts 154°
2026-05-04 09:27 49.97364 5.90778 33031 ft 437 kts 154°
2026-05-04 09:27 49.92241 5.95715 33016 ft 436 kts 154°
2026-05-04 09:28 49.87094 6.00679 33026 ft 435 kts 154°
2026-05-04 09:28 49.81951 6.05625 33027 ft 435 kts 154°
2026-05-04 09:29 49.76814 6.10549 33031 ft 434 kts 154°
2026-05-04 09:29 49.71686 6.15448 33037 ft 433 kts 154°
2026-05-04 09:30 49.66597 6.20291 33034 ft 432 kts 154°
2026-05-04 09:30 49.61477 6.25158 33033 ft 432 kts 154°
2026-05-04 09:31 49.56359 6.30008 32992 ft 432 kts 154°
2026-05-04 09:31 49.51231 6.34855 33001 ft 432 kts 154°
2026-05-04 09:32 49.46102 6.39529 33008 ft 429 kts 160°
2026-05-04 09:34 49.24370 6.54314 33025 ft 427 kts 161°
2026-05-04 09:34 49.18936 6.57988 33025 ft 427 kts 161°
2026-05-04 09:35 49.13539 6.61622 33025 ft 427 kts 161°
2026-05-04 09:35 49.08103 6.65270 32999 ft 427 kts 161°
2026-05-04 09:37 48.88371 6.71216 33003 ft 415 kts 185°
2026-05-04 09:37 48.85480 6.71097 33003 ft 415 kts 185°
2026-05-04 09:38 48.79701 6.70868 33010 ft 416 kts 185°
2026-05-04 09:38 48.73919 6.70647 33014 ft 416 kts 185°
2026-05-04 09:39 48.68130 6.70427 33018 ft 416 kts 185°
2026-05-04 09:39 48.62386 6.70209 33021 ft 416 kts 185°
2026-05-04 09:40 48.56597 6.69981 33027 ft 416 kts 185°
2026-05-04 09:40 48.50810 6.69748 33031 ft 416 kts 185°
2026-05-04 09:42 48.27705 6.68861 33030 ft 416 kts 185°
2026-05-04 09:43 48.21916 6.68647 33021 ft 416 kts 185°
2026-05-04 09:43 48.16135 6.68438 33031 ft 416 kts 185°
2026-05-04 09:44 48.10388 6.68223 33035 ft 415 kts 185°
2026-05-04 09:46 47.87338 6.67320 33035 ft 415 kts 185°
2026-05-04 09:46 47.81574 6.67095 33019 ft 414 kts 185°
2026-05-04 09:47 47.75818 6.66882 33032 ft 414 kts 185°
2026-05-04 09:49 47.52802 6.66038 33038 ft 414 kts 185°
2026-05-04 09:51 47.32662 6.65290 33015 ft 415 kts 185°
2026-05-04 09:51 47.26882 6.65062 33014 ft 416 kts 186°
2026-05-04 09:52 47.21313 6.63186 33009 ft 410 kts 205°
2026-05-04 09:52 47.16581 6.58637 33027 ft 408 kts 221°
2026-05-04 09:53 47.12381 6.53099 33026 ft 408 kts 221°
2026-05-04 09:53 47.08134 6.47562 33023 ft 408 kts 221°
2026-05-04 09:54 47.03890 6.42030 33021 ft 408 kts 221°
2026-05-04 09:54 46.99645 6.36502 33018 ft 408 kts 221°
2026-05-04 09:55 46.95399 6.30978 33027 ft 408 kts 221°
2026-05-04 09:55 46.91200 6.25528 32367 ft 402 kts 220°
2026-05-04 09:55 46.89097 6.22801 30596 ft 409 kts 220°
2026-05-04 09:56 46.86947 6.20006 28609 ft 418 kts 220°
2026-05-04 09:56 46.84768 6.17166 27200 ft 416 kts 220°
2026-05-04 09:56 46.82653 6.14403 26333 ft 404 kts 220°
2026-05-04 09:56 46.80550 6.11662 25276 ft 405 kts 220°
2026-05-04 09:57 46.78453 6.08938 24481 ft 402 kts 220°
2026-05-04 09:57 46.76366 6.06231 23742 ft 403 kts 220°
2026-05-04 09:57 46.74298 6.03552 22914 ft 403 kts 220°
2026-05-04 09:57 46.72209 6.00847 22218 ft 400 kts 220°
2026-05-04 09:58 46.70163 5.98202 22010 ft 386 kts 220°
2026-05-04 09:58 46.68189 5.95653 21874 ft 372 kts 220°
2026-05-04 09:58 46.66289 5.93202 21739 ft 359 kts 220°
2026-05-04 10:00 46.52829 5.85665 20065 ft 326 kts 149°
2026-05-04 10:00 46.50962 5.87571 19559 ft 329 kts 149°
2026-05-04 10:02 46.38181 6.00551 16886 ft 318 kts 139°
2026-05-04 10:04 46.43555 6.19221 12282 ft 326 kts 46°
2026-05-04 10:04 46.45143 6.21542 11658 ft 323 kts 47°
2026-05-04 10:04 46.46710 6.23848 11064 ft 319 kts 48°
2026-05-04 10:04 46.48258 6.26136 10484 ft 316 kts 48°
2026-05-04 10:05 46.49764 6.28353 10271 ft 299 kts 48°
2026-05-04 10:05 46.51186 6.30445 10049 ft 285 kts 49°
2026-05-04 10:05 46.52536 6.32448 9602 ft 279 kts 49°
2026-05-04 10:05 46.53873 6.34454 9137 ft 276 kts 49°
2026-05-04 10:06 46.55166 6.36453 8980 ft 266 kts 55°
2026-05-04 10:06 46.56012 6.38726 8833 ft 249 kts 79°
2026-05-04 10:06 46.56196 6.41123 8702 ft 231 kts 101°
2026-05-04 10:08 46.49868 6.46398 7968 ft 182 kts 199°
2026-05-04 10:08 46.48705 6.45770 7824 ft 170 kts 199°
2026-05-04 10:08 46.47628 6.45183 7697 ft 161 kts 202°
2026-05-04 10:08 46.46695 6.44407 7581 ft 153 kts 214°
2026-05-04 10:09 46.45914 6.43389 7480 ft 150 kts 222°
2026-05-04 10:09 46.45186 6.42320 7353 ft 148 kts 223°
2026-05-04 10:09 46.44453 6.41249 7227 ft 147 kts 223°
2026-05-04 10:09 46.43732 6.40195 7103 ft 147 kts 223°
2026-05-04 10:10 46.43012 6.39142 6944 ft 147 kts 223°
2026-05-04 10:10 46.42288 6.38096 6701 ft 147 kts 223°
2026-05-04 10:10 46.41577 6.37061 6415 ft 146 kts 223°
2026-05-04 10:10 46.40857 6.36012 6100 ft 147 kts 224°
2026-05-04 10:11 46.40134 6.34954 5800 ft 148 kts 224°
2026-05-04 10:11 46.39414 6.33894 5532 ft 148 kts 224°
2026-05-04 10:11 46.38700 6.32833 5286 ft 145 kts 224°
2026-05-04 10:11 46.38000 6.31787 5018 ft 146 kts 224°
2026-05-04 10:12 46.37284 6.30730 4688 ft 146 kts 224°
2026-05-04 10:12 46.36586 6.29686 4455 ft 144 kts 225°
2026-05-04 10:12 46.35906 6.28640 4285 ft 145 kts 227°
2026-05-04 10:12 46.35244 6.27524 4146 ft 143 kts 230°
2026-05-04 10:13 46.34584 6.26482 3956 ft 142 kts 223°
2026-05-04 10:13 46.33876 6.25496 3759 ft 141 kts 223°
2026-05-04 10:13 46.33172 6.24508 3573 ft 141 kts 224°
2026-05-04 10:13 46.32478 6.23506 3419 ft 140 kts 224°
2026-05-04 10:14 46.31790 6.22510 3260 ft 140 kts 225°
2026-05-04 10:14 46.31096 6.21499 3097 ft 142 kts 225°
2026-05-04 10:16 46.26249 6.14451 1694 ft 138 kts 225°
2026-05-04 10:16 46.25566 6.13470 1540 ft 137 kts 225°
2026-05-04 10:16 46.24881 6.12466 1377 ft 133 kts 225°
2026-05-04 10:16 46.24338 6.11671 1369 ft 76 kts 225°
2026-05-04 10:17 46.24151 6.11404 1374 ft 20 kts 224°
2026-05-04 10:17 46.24028 6.11224 1380 ft 26 kts 225°
2026-05-04 10:19 46.23303 6.10797 1381 ft 10 kts 198°
2026-05-04 10:19 46.23244 6.10764 1384 ft 9 kts 210°
2026-05-04 10:19 46.23193 6.10701 1384 ft 11 kts 224°
2026-05-04 10:19 46.23141 6.10626 1387 ft 7 kts 208°
2026-05-04 10:20 46.23112 6.10654 1387 ft 3 kts 137°
2026-05-04 10:20 46.23106 6.10662 1391 ft 0 kts 136°